Skip Page Navigation
NASA JPL Caltech
NASA Logo - Jet Propulsion Laboratory + View the NASA Portal
+ Center for Near-Earth Object Studies
JPL Home Earth Solar System Stars & Galaxies Technology
JPL Solar System Dynamics
BODIES ORBITS EPHEMERIDES TOOLS PHYSICAL DATA DISCOVERY FAQ SITE MAP
JPL Small-Body Database Browser
Search: [ help ]  
249898 (2001 SG11)
Classification: Main-belt Asteroid          SPK-ID: 2249898
Ephemeris | Orbit Diagram | Orbital Elements | Mission Design | Physical Parameters | Discovery Circumstances | Close-Approach Data ]

[ show orbit diagram ]
Orbital Elements at Epoch 2459000.5 (2020-May-31.0) TDB
Reference: JPL 10 (heliocentric ecliptic J2000)
 Element Value Uncertainty (1-sigma)   Units 
e .1771152545040954 8.1818e-08  
a 2.759547796817374 1.8252e-08 au
q 2.270789786467849 2.2967e-07 au
i 6.257454336327213 7.8119e-06 deg
node 213.5602839538311 6.1765e-05 deg
peri 175.1155454620153 7.7072e-05 deg
M 4.269238219334095 3.7286e-05 deg
tp 2458980.643477336622
(2020-May-11.14347734)
0.00017338 TDB
period 1674.384935102321
4.58
1.6612e-05
4.548e-08
d
yr
n .2150043233505326 2.1331e-09 deg/d
Q 3.248305807166899 2.1485e-08 au
  Orbit Determination Parameters
   # obs. used (total)      216  
   data-arc span      6592 days (18.05 yr)  
   first obs. used      2001-09-16  
   last obs. used      2019-10-04  
   planetary ephem.      DE431  
   SB-pert. ephem.      SB431-N16  
   condition code      0  
   norm. resid. RMS      .60136  
   source      ORB  
   producer      Otto Matic  
   solution date      2019-Nov-08 02:48:26  

Additional Information
 Earth MOID = 1.27593 au 
 Jupiter MOID = 2.19676 au 
 T_jup = 3.311 
[ show covariance matrix ]

Ephemeris | Orbit Diagram | Orbital Elements | Mission Design | Physical Parameters | Discovery Circumstances | Close-Approach Data ]

Physical Parameter Table
Parameter Symbol Value Units Sigma Reference Notes
absolute magnitude H 16.6   n/a MPO494362  

249898 (2001 SG11)          Discovered 2001-Sep-16 by LINEAR at Socorro
Reference: 20100923/Numbers.arcLast Updated: 2010-09-27

[ show close-approach data ]
Ephemeris | Orbit Diagram | Orbital Elements | Mission Design | Physical Parameters | Discovery Circumstances | Close-Approach Data ]
ABOUT SSD CREDITS/AWARDS PRIVACY/COPYRIGHT GLOSSARY LINKS
FirstGov 2020-Jul-12 22:55 UT
(server date/time)  
NASA Home Page
Site Manager:   Ryan S. Park
Webmaster  Alan B. Chamberlin